Flag for Greece Weather past 2 weeks in Thessaloniki, Greece

Now
68 °F

Passing clouds.


Feels Like: 68 °F
Forecast: 52 / 72 °F
Wind: 24 mph from North

Location: Thessaloniki Airport

Current Time: Sep 23, 2014 at 6:20:02 PM

Latest Report: Sep 23, 2014 at 5:50 PM


Visibility: N/A

Pressure: 29.86 "Hg

Humidity: 40%

Dew point: 43 °F

Location of ThessalonikiLocation

Historic Weather in Thessaloniki — Graph

°F

Thessaloniki temperature yesterday

Maximum temperature yesterday: 82 °F (at 5:20 PM)
Minimum temperature yesterday: 63 °F (at 4:50 AM)
Average temperature yesterday: 73 °F

Past Weeks' High & Low Weather Summary

 TemperatureHumidityPressure
High84 °F (Sep 8, 4:50 PM)100% (Sep 19, 6:20 AM)30.21 "Hg (Sep 19, 6:20 AM)
Low55 °F (Sep 19, 7:20 AM)30% (Sep 10, 5:50 PM)29.62 "Hg (Sep 23, 8:20 AM)
Average71 °F73%29.95 "Hg
* Reported Sep 8 4:20 PM — Sep 23 4:50 PM, Thessaloniki, Weather by CustomWeather, © 2014

Note: Actual official high and low records may vary slightly from our data, if they occured in-between our weather recording intervals... More about our weather records

Advertising

Thessaloniki weather history for previous 24 hours

 ConditionsComfort  
Time TempWeatherWind HumidityBarometerVisibility
4:50 PM
Sep 23
70 °FPassing clouds.29 mph40%29.83 "HgN/A
4:20 PM70 °FPassing clouds.29 mph46%29.80 "HgN/A
3:50 PM70 °FPassing clouds.33 mph46%29.80 "HgN/A
3:20 PM70 °FPassing clouds.32 mph40%29.77 "HgN/A
2:50 PM70 °FScattered clouds.33 mph40%29.77 "HgN/A
2:20 PM70 °FScattered clouds.36 mph40%29.77 "HgN/A
1:50 PM70 °FScattered clouds.33 mph43%29.74 "HgN/A
1:20 PM70 °FScattered clouds.30 mph53%29.74 "HgN/A
12:50 PM73 °FScattered clouds.29 mph47%29.71 "HgN/A
12:20 PM75 °FScattered clouds.23 mph54%29.68 "HgN/A
11:50 AM77 °FScattered clouds.17 mph54%29.65 "HgN/A
11:20 AM82 °FBroken clouds.12 mph42%29.62 "HgN/A
10:50 AM82 °FBroken clouds.6 mph42%29.62 "HgN/A
10:20 AM81 °FScattered clouds.8 mph42%29.62 "HgN/A
9:50 AM79 °FScattered clouds.3 mph45%29.62 "HgN/A
9:20 AM75 °FScattered clouds.5 mph61%29.62 "HgN/A
8:50 AM70 °FScattered clouds.6 mph78%29.62 "HgN/A
8:20 AM70 °FScattered clouds.3 mph83%29.62 "HgN/A
7:50 AM70 °FPassing clouds.No wind78%29.65 "HgN/A
7:20 AM70 °FPassing clouds.3 mph78%29.65 "HgN/A
6:50 AM70 °FPassing clouds.6 mph83%29.65 "HgN/A
6:20 AM70 °FPassing clouds.3 mph83%29.65 "HgN/A
5:50 AM70 °FPassing clouds.2 mph83%29.65 "HgN/A
5:20 AM72 °FPassing clouds.2 mph78%29.65 "HgN/A
4:50 AM72 °FPassing clouds.3 mph78%29.68 "HgN/A
4:20 AM73 °FPartly cloudy.7 mph78%29.68 "HgN/A
3:50 AM70 °FPartly cloudy.5 mph88%29.68 "HgN/A
2:20 AM72 °FPartly cloudy.6 mph88%29.71 "HgN/A
1:50 AM72 °FPartly cloudy.2 mph88%29.71 "HgN/A
1:20 AM72 °FPassing clouds.6 mph88%29.71 "HgN/A
12:50 AM73 °FPartly cloudy.1 mph78%29.71 "HgN/A
12:20 AM73 °FPassing clouds.3 mph83%29.71 "HgN/A
11:50 PM
Sep 22
72 °FPassing clouds.5 mph88%29.71 "HgN/A
11:20 PM75 °FDrizzle. Mostly cloudy.1 mph78%29.74 "HgN/A
10:50 PM75 °FPassing clouds.3 mph74%29.74 "HgN/A
10:20 PM75 °FPassing clouds.No wind74%29.74 "HgN/A
9:50 PM75 °FPassing clouds.3 mph74%29.71 "HgN/A
9:20 PM73 °FPassing clouds.3 mph78%29.71 "HgN/A
8:50 PM75 °FPassing clouds.3 mph78%29.71 "HgN/A
8:20 PM77 °FScattered clouds.6 mph79%29.71 "HgN/A
7:50 PM77 °FScattered clouds.8 mph79%29.71 "HgN/A
7:20 PM79 °FSunny.12 mph74%29.71 "Hg10 mi
6:50 PM79 °FSunny.12 mph74%29.71 "Hg10 mi
6:20 PM81 °FScattered clouds.12 mph66%29.71 "HgN/A
Weather by CustomWeather, © 2014

See weather overviewHow to use our weather pages